Theta_e
328 327 324 322 321 319 315 312 311 310 309 309 308 306 304 302 300 302 306 311 316 314 315 318 320 321 321 321 321 322 323 322 320 321 322 323 323 325 326 324 323 324 323
324 321 319 318 317 316 314 313 311 308 307 310 308 305 302 300 300 298 297 298 309 308 308 313 314 317 318 319 319 320 322 322 320 319 318 319 320 321 322 323 326 325 324
319 317 316 314 314 314 312 309 306 305 304 304 303 301 299 298 296 295 293 293 294 300 303 307 309 310 312 314 316 316 316 316 314 314 315 315 316 317 318 319 320 322 323
316 314 312 310 310 308 306 304 301 300 298 299 298 297 296 294 292 291 290 290 290 290 293 301 303 304 307 310 313 313 313 313 312 312 311 311 312 313 313 314 315 317 319
309 309 306 305 305 302 297 295 293 295 297 297 296 294 292 289 286 288 287 287 287 287 287 293 295 298 303 307 310 311 311 311 310 309 308 308 309 309 310 310 311 313 314
301 301 299 300 298 294 291 290 291 290 292 294 294 291 289 288 285 284 284 286 285 285 285 285 285 288 299 303 305 306 307 307 306 305 305 305 305 306 306 308 309 311 312
293 293 292 292 292 291 289 289 288 292 287 288 289 289 288 285 284 283 282 282 283 284 284 284 285 286 288 295 297 300 302 303 303 302 302 302 303 304 305 306 307 308 309
290 291 290 288 287 287 286 286 286 284 283 283 291 289 286 289 286 283 282 283 281 282 283 284 284 285 284 284 288 295 298 300 300 301 300 301 301 302 303 304 305 306 307
288 288 286 286 285 285 284 283 283 283 281 282 282 287 281 284 281 286 281 280 280 280 281 282 283 284 283 282 285 287 293 295 296 297 298 298 299 300 301 302 303 304 305
285 285 285 284 283 283 283 282 283 282 282 280 282 282 280 280 277 276 279 279 280 280 279 280 280 282 281 281 283 286 290 291 292 293 294 296 297 298 299 300 301 302 303
284 284 283 283 283 283 282 282 282 282 282 280 280 280 279 278 278 276 275 276 278 278 279 279 279 279 279 279 280 283 288 289 290 290 292 292 294 295 297 298 299 300 301
282 282 282 282 282 282 282 282 281 281 281 281 280 280 279 277 276 275 274 275 275 277 278 278 278 278 278 278 280 284 285 287 288 289 289 290 291 292 294 296 297 298 300
280 280 281 281 281 281 281 281 280 280 280 280 279 279 279 279 279 278 276 275 274 276 277 277 278 278 278 277 278 283 282 284 286 288 288 288 289 290 291 293 294 295 296
281 280 280 280 280 281 280 280 279 279 279 278 278 278 279 278 279 279 277 275 273 274 274 275 276 276 276 277 279 282 278 282 285 286 287 287 288 289 290 291 292 292 293
281 280 280 280 280 280 280 279 279 278 278 277 277 278 278 277 278 277 277 277 275 271 271 273 274 276 276 276 277 277 276 279 283 284 285 286 287 288 289 289 290 291 292
281 280 280 280 279 279 278 278 277 278 277 276 277 277 277 276 276 276 276 276 275 273 271 274 274 274 275 276 277 276 276 280 280 282 284 285 286 287 287 288 288 289 290
280 280 280 279 279 278 278 277 277 277 277 276 276 276 276 276 274 274 274 274 274 273 271 272 273 274 273 274 275 276 276 276 277 281 283 284 285 285 286 286 287 288 288
280 280 279 279 279 278 277 277 277 276 276 276 276 275 275 276 274 273 273 273 273 273 271 270 272 272 272 274 274 274 276 278 277 279 283 283 284 284 284 285 285 285 286
279 279 279 279 278 278 278 277 277 276 276 275 275 275 275 274 273 273 272 272 272 274 272 271 271 272 273 274 274 275 275 275 277 279 281 281 281 282 283 283 283 283 283
279 279 279 278 277 277 277 277 277 276 275 275 275 275 275 274 274 273 273 272 273 272 272 271 271 271 273 274 274 273 272 274 274 276 277 278 279 279 280 281 281 281 281
279 279 278 277 277 277 277 277 276 275 275 274 275 276 275 275 278 276 274 273 272 272 271 270 271 271 272 273 272 273 271 273 273 273 273 273 273 273 274 277 278 279 282
278 278 278 277 276 277 281 282 278 276 276 275 274 275 275 275 278 280 281 281 277 270 264 263 271 272 273 273 273 272 272 270 268 273 271 270 272 272 273 274 278 280 280
278 278 277 277 277 277 282 284 283 276 275 275 275 275 275 275 275 274 277 280 280 281 281 276 274 274 273 273 273 272 272 270 269 271 269 267 271 270 272 274 277 278 280
278 277 277 277 277 277 282 284 284 277 275 275 275 275 275 275 274 273 273 272 273 273 274 275 275 275 274 275 276 274 271 267 268 269 270 265 269 269 271 271 276 277 279
278 278 279 278 277 277 282 284 283 278 277 276 276 275 274 274 276 279 275 271 272 273 277 280 281 281 281 280 278 272 263 257 263 266 269 267 268 267 269 269 272 276 277
279 279 278 278 278 278 281 284 283 278 275 275 275 275 277 275 277 279 276 271 270 272 273 271 272 274 274 271 274 271 268 262 263 261 269 266 266 267 264 268 270 270 271
Wind_Speed
6 3 4 4 4 4 4 4 5 5 6 7 6 7 9 9 9 6 7 21 22 25 25 24 24 24 23 22 21 21 21 21 22 23 25 26 24 27 18 18 15 14 14
6 5 5 4 4 4 4 4 4 5 4 6 8 9 9 9 11 10 7 9 23 24 25 24 25 25 25 25 24 23 24 24 25 25 24 24 23 25 25 25 23 19 16
8 7 6 4 4 5 5 5 5 5 6 6 8 9 9 10 10 10 9 8 9 21 25 25 25 25 25 25 24 25 25 26 25 24 25 27 27 26 25 23 25 24 25
8 7 6 5 4 5 4 4 4 6 5 6 7 7 8 9 10 10 9 8 7 7 14 24 25 25 24 24 24 24 24 23 24 26 26 26 26 27 28 28 27 25 23
7 8 6 5 6 5 4 4 4 4 6 7 8 7 7 7 6 8 10 10 11 9 7 19 22 24 24 24 24 25 25 25 26 26 26 27 28 29 28 28 28 27 25
7 8 5 6 5 6 5 5 6 6 4 6 9 8 6 5 6 6 7 7 8 8 7 9 8 11 24 25 25 25 26 26 25 25 25 26 27 28 29 29 28 28 28
7 7 5 5 4 6 5 6 4 9 6 3 5 5 5 5 7 5 4 5 8 7 8 8 6 6 8 22 24 25 26 26 26 26 26 27 27 28 29 29 29 29 28
6 6 6 5 5 5 6 6 4 4 4 4 4 2 3 0 3 5 4 5 6 5 8 8 8 9 8 7 16 24 26 27 27 27 27 27 28 28 28 29 29 29 29
6 6 6 5 6 4 5 5 6 7 5 4 6 4 3 3 0 1 4 4 6 5 4 5 7 8 8 7 10 15 26 26 26 27 28 28 28 29 29 29 29 29 30
6 6 6 6 6 4 7 5 4 5 5 5 3 6 6 3 2 1 2 3 5 6 5 4 5 6 8 6 11 19 24 25 26 26 27 28 28 29 29 30 30 29 29
6 6 6 6 6 5 6 7 7 7 3 4 3 3 4 4 4 3 0 4 3 2 3 3 4 3 6 7 7 14 23 25 26 25 26 27 28 29 30 30 30 31 30
4 6 6 6 5 6 8 7 6 8 6 6 4 4 3 3 1 2 2 2 2 4 1 1 3 4 4 5 11 19 22 24 25 26 26 27 27 28 29 30 30 31 30
4 6 6 6 5 6 7 7 7 6 5 6 6 5 4 4 2 2 2 1 1 3 4 1 1 2 5 5 7 18 18 23 24 26 27 27 27 28 29 30 30 30 30
7 7 6 6 7 8 7 6 5 5 7 6 8 6 5 4 2 2 3 3 0 2 2 5 1 2 4 5 10 18 11 23 25 25 24 26 27 28 29 30 31 30 30
8 8 8 9 7 8 7 7 6 6 7 5 6 6 4 3 3 3 3 2 3 2 3 3 3 2 2 3 7 6 9 17 23 23 25 26 28 28 30 31 30 31 31
10 10 9 9 8 7 6 6 6 5 8 4 4 6 4 3 3 2 2 2 2 4 3 3 4 3 2 4 8 7 8 18 19 23 25 27 28 30 30 30 31 30 31
11 11 11 10 10 9 7 6 6 7 8 6 5 6 5 5 3 3 2 2 3 3 3 4 3 3 2 6 8 6 8 8 9 21 26 27 29 30 30 30 31 32 31
10 11 11 10 9 8 7 8 9 7 8 7 6 6 6 4 5 4 3 4 3 3 3 5 3 2 3 8 8 9 7 7 9 17 26 29 28 28 30 31 32 34 33
10 9 10 10 10 9 9 7 7 7 7 6 6 6 6 6 4 4 4 4 3 3 3 3 5 1 4 5 9 7 9 10 8 20 23 25 26 28 29 32 31 30 30
11 10 9 8 8 8 8 8 7 7 6 6 6 6 6 6 6 6 5 5 4 3 4 4 5 6 5 6 4 8 13 8 11 11 17 18 23 29 28 28 28 28 29
9 9 8 6 6 7 7 8 8 7 7 6 5 5 5 6 10 8 4 5 4 4 3 4 5 6 7 7 7 7 9 11 13 11 8 11 13 11 12 20 22 26 31
8 8 8 8 8 6 13 16 10 8 7 7 7 6 5 6 10 13 13 14 9 5 5 3 6 7 9 6 6 7 9 10 10 1 12 17 10 11 11 11 25 30 33
10 9 8 8 9 7 16 17 17 6 7 7 7 5 5 5 7 5 10 14 14 15 15 7 9 8 7 6 9 11 8 10 12 10 11 15 11 10 10 12 29 31 29
11 10 9 9 8 8 17 18 17 6 5 6 6 6 6 6 7 6 5 7 9 8 10 8 8 8 7 8 8 7 9 9 11 9 8 12 8 11 12 12 26 25 24
8 8 7 8 10 8 19 20 15 6 7 8 6 7 7 8 11 14 8 8 9 10 12 19 20 19 18 16 14 7 5 2 9 8 8 7 8 14 11 13 8 19 29
8 6 7 8 11 10 18 20 17 4 6 6 5 7 14 11 14 17 10 6 10 10 6 7 4 6 6 6 13 7 5 6 6 8 2 8 10 10 9 5 9 11 11
Wind_Direction
126 121 103 85 75 87 90 74 75 71 69 72 63 69 66 65 63 58 49 47 53 53 44 44 40 37 33 29 24 22 21 25 23 16 17 12 5 8 348 333 326 330 331
120 113 100 89 83 82 75 78 84 79 75 74 73 71 70 70 68 57 51 43 52 50 45 43 41 38 35 31 27 25 26 24 22 13 12 9 5 5 2 359 360 336 325
120 115 107 92 90 90 93 91 75 69 77 71 70 71 74 69 63 55 48 43 37 38 42 43 40 36 31 29 28 28 24 23 19 14 12 9 7 1 1 356 359 352 358
118 107 104 96 97 87 88 87 75 77 72 68 77 61 64 65 62 60 57 49 44 35 32 41 39 33 30 29 28 26 23 21 19 14 10 5 2 360 358 356 352 350 342
93 106 109 103 100 95 82 90 68 84 91 82 84 71 66 65 55 57 54 49 43 38 36 34 36 33 30 28 29 25 21 16 14 9 4 1 357 353 351 349 346 343 341
84 94 94 108 109 104 89 81 95 59 72 94 89 75 60 54 60 56 48 48 46 41 39 34 27 24 33 32 28 22 16 11 7 2 358 353 350 346 344 342 341 340 338
86 96 95 92 88 105 113 111 100 93 54 34 91 71 51 51 58 42 32 48 41 33 39 36 38 32 25 27 19 16 10 4 1 358 354 351 348 344 341 338 336 333 332
98 106 114 115 108 109 96 95 107 111 84 8 124 117 154 292 56 51 26 44 44 34 36 35 36 40 32 19 18 15 10 5 0 357 354 349 344 341 338 334 332 329 327
101 108 110 116 106 103 113 110 109 114 127 29 51 133 110 201 72 17 36 26 47 44 27 28 35 42 36 23 22 10 6 1 359 355 351 347 343 339 336 332 328 326 324
91 98 103 106 106 110 101 94 95 96 104 125 76 44 50 86 123 9 352 3 23 34 26 25 30 33 32 18 13 5 2 360 355 352 349 344 342 338 335 331 327 324 320
97 104 107 104 99 99 93 99 88 85 87 112 118 130 71 56 53 110 261 325 347 7 27 31 44 43 32 18 6 360 358 356 353 349 348 344 341 339 335 331 327 322 320
112 99 96 104 112 108 105 100 95 91 99 98 104 95 112 122 103 92 73 337 324 311 3 49 43 29 32 15 6 360 356 352 348 346 344 342 339 335 332 328 325 322 320
141 138 132 135 119 112 101 100 97 102 103 95 86 78 69 74 95 89 87 72 319 313 323 336 70 35 21 13 355 355 348 347 345 343 342 338 335 332 327 326 324 321 319
148 149 139 130 123 114 110 107 111 118 110 107 108 103 114 109 107 122 142 151 217 292 296 265 290 31 21 1 338 344 341 343 339 339 333 332 330 328 325 325 321 319 316
146 149 144 135 128 124 131 137 130 118 105 104 113 115 107 109 120 129 118 144 153 226 279 290 288 198 352 319 325 337 328 324 329 331 332 331 327 324 323 321 317 314 314
153 151 144 139 139 137 141 134 124 121 115 119 121 126 124 144 139 134 135 138 156 176 246 230 256 266 294 324 324 326 303 315 317 328 329 325 321 322 320 317 314 311 310
159 158 153 149 151 155 154 135 131 139 134 135 136 149 159 154 160 156 159 147 168 166 231 276 259 252 276 322 325 310 298 299 313 321 322 320 321 319 318 315 312 311 312
164 160 157 156 158 160 158 153 152 156 146 155 164 164 166 164 182 181 181 192 187 192 222 283 274 299 284 323 305 305 310 315 315 310 317 319 319 317 316 315 313 311 309
164 160 161 164 164 165 165 168 154 154 159 167 171 178 177 177 192 190 197 202 200 227 210 257 291 307 285 304 315 309 322 317 306 310 314 317 316 317 315 313 311 310 311
165 169 171 164 166 167 172 166 157 157 161 177 185 189 187 188 202 198 197 208 213 214 226 244 270 286 293 310 285 326 321 319 312 315 313 310 314 313 311 312 312 312 308
171 167 156 158 162 175 181 171 166 165 172 181 199 206 203 206 220 209 189 204 209 224 226 245 269 282 294 307 318 320 304 309 310 299 316 312 310 308 307 310 305 306 303
158 159 171 170 175 195 198 191 174 176 180 187 203 207 210 221 233 232 232 237 213 198 224 209 262 269 283 299 306 306 301 315 315 96 336 305 310 306 306 305 305 310 313
163 175 173 169 193 205 204 203 199 186 183 200 198 189 207 217 219 222 249 258 256 259 252 240 258 262 279 291 298 297 302 300 289 303 313 293 312 297 303 302 308 310 311
175 178 182 190 199 211 212 213 209 181 197 213 199 192 211 219 218 212 221 236 243 243 249 256 258 264 254 268 267 300 310 304 294 294 296 282 309 300 310 299 304 307 311
167 192 183 193 206 212 215 218 211 182 208 220 203 205 211 227 232 245 233 231 243 245 250 258 263 249 268 294 307 314 301 325 301 304 306 288 309 309 303 295 292 314 317
187 184 193 202 211 220 219 219 215 171 207 219 210 220 221 232 242 246 246 226 253 256 235 244 255 275 283 286 294 288 275 267 278 310 355 319 312 328 312 281 316 302 307